K5EBQ Weather Reports


time (UTC)temp
F
wind
direction
speed
knots
gust
knots
rain 1hr
in
rain 24hr
in
rain mn
in
humidity
%
barometer
mb
20260506024529 79 177 4.3 20.9 0.00 0.00 0.00 85 1006.0
20260506023027 79 192 2.6 9.6 0.00 0.00 0.00 85 1005.7
20260506021525 79 166 4.3 12.2 0.00 0.00 0.00 84 1005.6
20260506020025 80 188 4.3 11.3 0.00 0.00 0.00 84 1005.4
20260506014524 80 190 0.9 7.8 0.00 0.00 0.00 83 1005.2
20260506013024 80 219 3.5 8.7 0.00 0.00 0.00 82 1005.0
20260506011527 80 171 1.7 8.7 0.00 0.00 0.00 82 1004.6
20260506010022 81 171 1.7 13.9 0.00 0.00 0.00 81 1004.5
20260506004526 81 223 2.6 29.5 0.00 0.00 0.00 80 1004.4
20260506003021 81 180 3.5 7.0 0.00 0.00 0.00 80 1004.4
20260506001521 81 219 3.5 18.2 0.00 0.00 0.00 79 1004.2
20260506000022 82 181 1.7 7.8 0.00 0.00 0.00 79 1004.4
20260505234520 82 203 5.2 31.3 0.00 0.00 0.00 78 1004.2
20260505233019 82 155 7.0 39.1 0.00 0.00 0.00 77 1004.2
20260505231527 82 238 12.2 41.7 0.00 0.00 0.00 77 1004.2
20260505230026 83 226 12.2 40.8 0.00 0.00 0.00 77 1004.3
20260505224518 83 226 18.2 52.1 0.00 0.00 0.00 76 1004.3
20260505223016 83 196 10.4 67.8 0.00 0.00 0.00 76 1004.2
20260505221514 83 213 3.5 34.8 0.00 0.00 0.00 77 1004.4
20260505220013 84 203 2.6 8.7 0.00 0.00 0.00 76 1004.5
20260505214511 84 202 4.3 13.0 0.00 0.00 0.00 75 1004.7
20260505213010 84 207 1.7 10.4 0.00 0.00 0.00 77 1004.8
20260505211509 84 148 4.3 13.0 0.00 0.00 0.00 76 1004.9
20260505210008 84 219 3.5 8.7 0.00 0.00 0.00 77 1005.1
20260505204506 84 229 4.3 9.6 0.00 0.00 0.00 76 1005.2
20260505203005 84 223 4.3 14.8 0.00 0.00 0.00 76 1005.4
20260505201504 84 190 3.5 7.0 0.00 0.00 0.00 77 1005.8
20260505200001 84 186 1.7 9.6 0.00 0.00 0.00 78 1005.9
20260505194624 84 222 2.6 9.6 0.00 0.00 0.00 77 1006.1
20260505193100 84 230 3.5 8.7 0.00 0.00 0.00 76 1006.2
20260505191559 83 231 2.6 18.2 0.00 0.00 0.00 78 1006.3
20260505190057 82 204 2.6 7.8 0.00 0.00 0.00 80 1006.3
20260505184556 82 180 2.6 9.6 0.00 0.00 0.00 79 1006.6
20260505183055 83 95 5.2 11.3 0.00 0.00 0.00 77 1006.6
20260505181557 82 223 3.5 9.6 0.00 0.00 0.00 80 1006.7
20260505180049 80 208 0.9 7.8 0.00 0.00 0.00 83 1006.8
20260505174555 80 212 3.5 7.0 0.00 0.00 0.00 82 1007.1
20260505173048 80 167 1.7 13.9 0.00 0.00 0.00 83 1007.2
20260505171552 80 208 2.6 10.4 0.00 0.00 0.00 82 1007.1
20260505170047 80 231 2.6 7.0 0.00 0.00 0.00 82 1007.2
20260505164556 79 198 1.7 8.7 0.00 0.00 0.00 83 1007.3
20260505163050 79 234 3.5 8.7 0.00 0.00 0.00 85 1007.3
20260505161541 78 198 6.1 32.2 0.00 0.00 0.00 84 1007.2
20260505153036 77 119 1.7 7.8 0.00 0.00 0.00 87 1006.9
20260505151534 77 210 1.7 6.1 0.00 0.00 0.00 87 1006.9
20260505124514 73 184 0.0 0.0 0.00 0.00 0.00 92 1006.5
20260505123006 73 144 0.0 0.0 0.00 0.00 0.00 92 1006.5
20260505121502 72 163 0.0 0.0 0.00 0.00 0.00 92 1006.4
20260505120002 72 171 0.0 0.0 0.00 0.00 0.00 92 1006.1
20260505114501 72 167 0.0 0.0 0.00 0.00 0.00 92 1006.1
20260505113000 72 199 0.0 0.0 0.00 0.00 0.00 92 1006.3
20260505111600 72 200 0.0 0.0 0.00 0.00 0.00 92 1006.1
20260505110116 72 190 0.0 0.0 0.00 0.00 0.00 92 1006.0
20260505101550 71 167 0.0 0.0 0.00 0.00 0.00 92 1006.1
20260505100049 71 204 0.0 0.0 0.00 0.00 0.00 92 1006.3
20260505094547 71 204 0.0 0.0 0.00 0.00 0.00 91 1006.3
20260505093046 71 207 0.0 0.0 0.00 0.00 0.00 91 1006.3
20260505091544 71 207 0.0 0.0 0.00 0.00 0.00 90 1006.5
20260505090044 71 207 0.0 0.0 0.00 0.00 0.00 90 1006.6
20260505084543 71 203 0.0 0.0 0.00 0.00 0.00 90 1006.6
20260505083042 71 203 0.0 0.0 0.00 0.00 0.00 90 1006.7
20260505081544 71 203 0.0 0.0 0.00 0.00 0.00 89 1006.9
20260505080044 71 196 0.0 0.0 0.00 0.00 0.00 88 1006.9
20260505074537 72 209 0.0 4.3 0.00 0.00 0.00 88 1007.1
20260505073044 72 221 0.0 0.0 0.00 0.00 0.00 88 1007.0
20260505071547 72 86 0.0 6.1 0.00 0.00 0.00 87 1007.2
20260505070033 72 234 1.7 8.7 0.00 0.00 0.00 87 1007.2
20260505064531 72 198 0.0 6.1 0.00 0.00 0.00 86 1007.4
20260505063028 72 231 0.0 7.0 0.00 0.00 0.00 86 1007.7
20260505061526 72 198 0.0 0.0 0.00 0.00 0.00 86 1007.9
20260505060025 72 167 0.0 0.0 0.00 0.00 0.00 85 1008.0
20260505054532 72 168 0.0 4.3 0.00 0.00 0.00 85 1008.0
20260505053029 72 144 0.0 0.0 0.00 0.00 0.00 84 1008.2
20260505051533 72 217 0.0 0.0 0.00 0.00 0.00 84 1008.4
20260505041518 73 172 0.0 0.0 0.00 0.00 0.00 81 1008.3
20260505040032 73 149 0.0 4.3 0.00 0.00 0.00 80 1008.6
20260505034516 73 134 0.9 7.0 0.00 0.00 0.00 80 1008.6
20260505033019 73 197 1.7 6.1 0.00 0.00 0.00 79 1008.8
20260505031515 74 175 1.7 43.4 0.00 0.00 0.00 78 1008.6
20260505030024 74 190 3.5 17.4 0.00 0.00 0.00 78 1008.6